ZHONGXING-6C

Last updated on Wed Jul 02 2025 00:02:47 GMT+0000 (Coordinated Universal Time)

1 44067U 19012A 25182.53750517 -.00000332 00000+0 00000+0 0 9992 2 44067 0.0237 60.5280 0008450 348.2223 194.9716 1.00269202 23225
UTC large
Height (km)
Speed (km/s)
/
Latitude / Longitude
Inclination (degrees)
Orbital Period (minutes)
Azimuth
Elevation
Range (km)
Doppler Factor

Next 0 passes for location: London (51.5072 / 0.1276)

Sorry there are no passes over London.